Weather History for LGKV - April, 2013

Change the Weather History Date:

Wednesday, April 3, 2013

  Actual Average Record
Temperature  
Mean Temperature 56 °F -  
Max Temperature 60 °F 56 °F 62 °F (2002)
Min Temperature 51 °F 42 °F 30 °F (2005)
Degree Days  
Heating Degree Days 10    
Growing Degree Days 6 (Base 50)    
Moisture  
Dew Point 53 °F    
Average Humidity 83    
Maximum Humidity 94    
Minimum Humidity 72    
Precipitation  
Precipitation 0.00 in - - ()
Sea Level Pressure  
Sea Level Pressure 29.51 in    
Wind  
Wind Speed 6 mph ()    
Max Wind Speed 15 mph    
Max Gust Speed 28 mph    
Visibility 5.9 miles    
Events Rain    
Averages and records for this station are not official NWS values.
T = Trace of Precipitation, MM = Missing Value Source: Averaged Metar Reports

Daily Weather History Graph

Daily Weather History Graph

Search for Another Location

Airport or City:

Trip Planner

Search our weather history database for the weather conditions in past years. The results will help you decide how hot, cold, wet, or windy it might be!

Date:

Astronomy

Apr. 03, 2013 Rise Set
Actual Time 7:01 AM EEST 7:48 PM EEST
Civil Twilight 6:33 AM EEST 8:16 PM EEST
Nautical Twilight 6:01 AM EEST 8:49 PM EEST
Astronomical Twilight 5:27 AM EEST 9:23 PM EEST
Moon 2:29 AM EEST (4/3) 12:37 PM EEST (4/3)
Length of Visible Light 13h 42m
Length of Day
12h 46m
Waning Gibbous, 48% of the Moon is Illuminated
Apr 3
Waning Gibbous
Apr 10
New
Apr 18
First Quarter
Apr 25
Full
May 2
Last Quarter

Hourly Weather History & Observations

Time (EEST) Temp. Dew Point Humidity Pressure Visibility Wind Dir Wind Speed Gust Speed Precip Events Conditions
12:50 AM 59.0 °F 51.8 °F 77% 29.62 in 6.2 mi ENE 10.4 mph - N/A   Overcast
1:50 AM 57.2 °F 51.8 °F 82% 29.59 in 6.2 mi ENE 6.9 mph - N/A   Overcast
3:50 AM 59.0 °F 55.4 °F 88% 29.56 in 6.2 mi ENE 6.9 mph - N/A   Mostly Cloudy
4:50 AM 59.0 °F 50.0 °F 72% 29.53 in 6.2 mi NE 10.4 mph - N/A   Overcast
5:20 AM 59.0 °F 55.4 °F 88% 29.50 in 6.2 mi ENE 11.5 mph - N/A   Mostly Cloudy
5:50 AM 59.0 °F 51.8 °F 77% 29.50 in 6.2 mi NE 5.8 mph - N/A   Overcast
6:20 AM 59.0 °F 51.8 °F 77% 29.53 in 6.2 mi NE 5.8 mph - N/A   Overcast
6:50 AM 59.0 °F 51.8 °F 77% 29.53 in 6.2 mi East 5.8 mph - N/A   Mostly Cloudy
7:20 AM 59.0 °F 53.6 °F 82% 29.50 in 6.2 mi ENE 4.6 mph - N/A   Mostly Cloudy
7:50 AM 59.0 °F 51.8 °F 77% 29.50 in 6.2 mi ENE 6.9 mph - N/A   Mostly Cloudy
8:50 AM 59.0 °F 51.8 °F 77% 29.50 in 6.2 mi NE 6.9 mph - N/A   Overcast
9:20 AM 59.0 °F 51.8 °F 77% 29.50 in 6.2 mi NNE 5.8 mph - N/A   Overcast
9:50 AM 59.0 °F 51.8 °F 77% 29.47 in 6.2 mi NNE 6.9 mph - N/A   Overcast
10:20 AM 60.8 °F 55.4 °F 82% 29.47 in 3.1 mi NE 4.6 mph - N/A Rain Light Rain
10:50 AM 60.8 °F 55.4 °F 82% 29.47 in 4.3 mi ENE 5.8 mph - N/A Rain Light Rain
11:20 AM 60.8 °F 55.4 °F 82% 29.47 in 4.3 mi NNE 4.6 mph - N/A   Overcast
11:50 AM 60.8 °F 57.2 °F 88% 29.47 in 3.1 mi WNW 13.8 mph 27.6 mph N/A Rain Light Rain
12:20 PM 60.8 °F 57.2 °F 88% 29.47 in 6.2 mi WNW 9.2 mph - N/A Rain Light Rain
12:50 PM 53.6 °F 50.0 °F 88% 29.50 in 3.1 mi WSW 15.0 mph - N/A Rain Light Rain
1:20 PM 53.6 °F 50.0 °F 88% 29.47 in 6.2 mi WNW 5.8 mph - N/A Rain Light Rain
1:50 PM 57.2 °F 55.4 °F 94% 29.47 in 6.2 mi Calm Calm - N/A   Mostly Cloudy
2:20 PM 57.2 °F 55.4 °F 94% 29.47 in 6.2 mi SSW 5.8 mph - N/A   Mostly Cloudy
2:50 PM 60.8 °F 53.6 °F 77% 29.47 in 6.2 mi South 5.8 mph - N/A   Mostly Cloudy
3:20 PM 60.8 °F 53.6 °F 77% 29.47 in 6.2 mi South 8.1 mph - N/A   Mostly Cloudy
3:50 PM 60.8 °F 53.6 °F 77% 29.47 in 6.2 mi SSW 6.9 mph - N/A   Mostly Cloudy
4:20 PM 60.8 °F 53.6 °F 77% 29.47 in 6.2 mi SSW 5.8 mph - N/A   Mostly Cloudy
4:50 PM 60.8 °F 53.6 °F 77% 29.47 in 6.2 mi Calm Calm - N/A   Mostly Cloudy
5:20 PM 60.8 °F 53.6 °F 77% 29.47 in 6.2 mi South 8.1 mph - N/A   Mostly Cloudy
5:50 PM 59.0 °F 51.8 °F 77% 29.47 in 6.2 mi South 5.8 mph - N/A   Mostly Cloudy
6:20 PM 59.0 °F 51.8 °F 77% 29.47 in 6.2 mi Calm Calm - N/A   Mostly Cloudy
6:50 PM 59.0 °F 51.8 °F 77% 29.50 in 6.2 mi West 4.6 mph - N/A   Scattered Clouds
7:20 PM 59.0 °F 51.8 °F 77% 29.50 in 6.2 mi SW 5.8 mph - N/A   Scattered Clouds
7:50 PM 57.2 °F 51.8 °F 82% 29.50 in 6.2 mi West 6.9 mph - N/A   Scattered Clouds
8:20 PM 55.4 °F 51.8 °F 88% 29.53 in 6.2 mi WNW 5.8 mph - N/A   Scattered Clouds
8:50 PM 53.6 °F 51.8 °F 94% 29.53 in 6.2 mi WNW 5.8 mph - N/A   Scattered Clouds
9:20 PM 53.6 °F 51.8 °F 94% 29.56 in 6.2 mi West 8.1 mph - N/A   Scattered Clouds
9:50 PM 53.6 °F 51.8 °F 94% 29.56 in 6.2 mi WNW 8.1 mph - N/A   Partly Cloudy
10:20 PM 53.6 °F 51.8 °F 94% 29.56 in 6.2 mi WNW 4.6 mph - N/A   Partly Cloudy
10:50 PM 53.6 °F 50.0 °F 88% 29.56 in 6.2 mi Calm Calm - N/A   Partly Cloudy
11:20 PM 51.8 °F 50.0 °F 94% 29.59 in 6.2 mi Calm Calm - N/A   Partly Cloudy
11:50 PM 51.8 °F 50.0 °F 94% 29.59 in 6.2 mi Calm Calm - N/A   Partly Cloudy